Need Help? Talk to an Expert info@thzeal.com

Home

>

homepage

Homepage

CIK Ticker Name Date Form
2010653 FVNNR Future Vision II Acquisition Corp. 2026-05-06 06:50:30 8-K |    |  
1964789 HUT Hut 8 Corp. 2026-05-06 06:50:09 8-K |    |  
2032966 TICAW TIC Solutions, Inc. 2026-05-06 06:48:27 10-Q |    |  
1739566 UTZ Utz Brands, Inc. 2026-05-06 06:46:31 10-Q |    |  
1689873 GraniteShares ETF Trust 2026-05-06 06:46:29 485BXT
2032966 TICAW TIC Solutions, Inc. 2026-05-06 06:46:27 8-K |    |  
1964789 HUT Hut 8 Corp. 2026-05-06 06:45:51 10-Q |    |  
55242 KMT KENNAMETAL INC 2026-05-06 06:45:40 8-K |    |  
1833197 SWIM Latham Group, Inc. 2026-05-06 06:45:34 S-8
1880319 PRM Perimeter Solutions, Inc. 2026-05-06 06:44:09 8-K |    |  
1111711 NI NISOURCE INC. 2026-05-06 06:42:36 10-Q |    |  
1744489 DIS Walt Disney Co 2026-05-06 06:41:43 10-Q |    |  
2003159 Brummer Multi-Strategy AB 2026-05-06 06:41:31 13F-HR
216228 ITT ITT INC. 2026-05-06 06:41:03 8-K |    |  
1744489 DIS Walt Disney Co 2026-05-06 06:40:14 8-K |    |  
1689873 GraniteShares ETF Trust 2026-05-06 06:39:59 485BXT
1739566 UTZ Utz Brands, Inc. 2026-05-06 06:39:56 8-K |    |  
1793659 RSI Rush Street Interactive, Inc. 2026-05-06 06:39:38 FWP
1674519 Hawaiian Ola Brewing Corp 2026-05-06 06:38:15 C
1618755 RSTRF Restaurant Brands International Limited Partnership 2026-05-06 06:37:20 8-K |    |  
1618756 QSR Restaurant Brands International Inc. 2026-05-06 06:37:09 8-K |    |  
1564708 NWS NEWS CORP 2026-05-06 06:37:00 8-K |    |  
1111711 NI NISOURCE INC. 2026-05-06 06:36:47 8-K |    |  
845982 SNNUF SMITH & NEPHEW PLC 2026-05-06 06:35:37 6-K
64803 CVS CVS HEALTH Corp 2026-05-06 06:33:38 10-Q |    |  
1527469 ATH-PE Athene Holding Ltd. 2026-05-06 06:33:32 8-K |    |  
1585364 PRGO PERRIGO Co plc 2026-05-06 06:33:09 8-K |    |  
1140859 COR Cencora, Inc. 2026-05-06 06:32:42 8-K |    |  
1601830 RXRX RECURSION PHARMACEUTICALS, INC. 2026-05-06 06:32:40 10-Q |    |  
1601830 RXRX RECURSION PHARMACEUTICALS, INC. 2026-05-06 06:31:39 8-K |    |  
1082554 UTHR UNITED THERAPEUTICS Corp 2026-05-06 06:31:29 8-K |    |  
64803 CVS CVS HEALTH Corp 2026-05-06 06:31:25 8-K |    |  
1546417 BLMN Bloomin' Brands, Inc. 2026-05-06 06:31:20 8-K |    |  
1858681 APOS Apollo Global Management, Inc. 2026-05-06 06:31:19 8-K |    |  
1082554 UTHR UNITED THERAPEUTICS Corp 2026-05-06 06:30:51 10-Q |    |  
1611647 FRPT Freshpet, Inc. 2026-05-06 06:30:50 8-K |    |  
820313 APH AMPHENOL CORP /DE/ 2026-05-06 06:30:49 8-K |    |  
1158895 LMAT LEMAITRE VASCULAR INC 2026-05-06 06:30:40 10-Q |    |  
842023 TECH BIO-TECHNE Corp 2026-05-06 06:30:36 8-K |    |  
1109354 BRKRP BRUKER CORP 2026-05-06 06:30:17 8-K |    |  
1739104 ELAN Elanco Animal Health Inc 2026-05-06 06:30:14 8-K |    |  
1633969 Cryder Capital Partners LLP 2026-05-06 06:30:05 13F-HR
1491252 Green Century Capital Management, Inc. 2026-05-06 06:30:04 13F-NT
2095743 REA Rare Earths Americas, Inc. 2026-05-06 06:25:06 CERT
1969302 PONY Pony AI Inc. 2026-05-06 06:23:53 6-K
1598599 IPHYF Innate Pharma SA 2026-05-06 06:23:07 6-K
1696556 OFRM Once Upon a Farm, PBC 2026-05-06 06:20:45 4
1545597 Waldman Lawrence Steven 2026-05-06 06:20:45 4
1689873 GraniteShares ETF Trust 2026-05-06 06:20:33 485BXT
2115403 He Eric 2026-05-06 06:19:26 4
1802883 API Agora, Inc. 2026-05-06 06:19:26 4
1568651 OSCR Oscar Health, Inc. 2026-05-06 06:19:03 8-K |    |  
1689873 GraniteShares ETF Trust 2026-05-06 06:18:59 497
1696556 OFRM Once Upon a Farm, PBC 2026-05-06 06:18:29 8-K |    |  
1453015 BLDP Ballard Power Systems Inc. 2026-05-06 06:18:01 6-K
1060822 CRI CARTERS INC 2026-05-06 06:17:47 8-K |    |  
2038439 VWAVW VisionWave Holdings, Inc. 2026-05-06 06:16:02 4
1894693 SVREW SaverOne 2014 Ltd. 2026-05-06 06:16:02 4
1696556 OFRM Once Upon a Farm, PBC 2026-05-06 06:15:23 8-K |    |  
2035149 FLOC Flowco Holdings Inc. 2026-05-06 06:15:20 8-K |    |  
1894693 SVREW SaverOne 2014 Ltd. 2026-05-06 06:15:18 SCHEDULE 13D/A
2038439 VWAVW VisionWave Holdings, Inc. 2026-05-06 06:15:18 SCHEDULE 13D/A
1976908 JDZG JIADE Ltd 2026-05-06 06:15:15 6-K
923796 GEO GEO GROUP INC 2026-05-06 06:15:15 8-K |    |  
1096752 EPC EDGEWELL PERSONAL CARE Co 2026-05-06 06:14:58 8-K |    |  
1689873 GraniteShares ETF Trust 2026-05-06 06:14:55 485BXT
1140625 STOHF EQUINOR ASA 2026-05-06 06:14:21 6-K
2133383 Brevondale Capital, Inc. 2026-05-06 06:14:17 D
1846416 HVIIU Hennessy Capital Investment Corp. VII 2026-05-06 06:13:22 425
1748790 AMCCF Amcor plc 2026-05-06 06:12:40 8-K |    |  
1689873 GraniteShares ETF Trust 2026-05-06 06:12:31 485BXT
1317630 ITC Holdings Corp. 2026-05-06 06:11:38 10-Q |    |  
1039280 NTWK NETSOL TECHNOLOGIES INC 2026-05-06 06:10:19 8-K |    |  
1689873 GraniteShares ETF Trust 2026-05-06 06:10:04 485BXT
1840502 TBLAW Taboola.com Ltd. 2026-05-06 06:09:38 10-Q |    |  
1342874 TX Ternium S.A. 2026-05-06 06:08:44 6-K
2028201 COLAR Columbus Acquisition Corp/Cayman Islands 2026-05-06 06:08:28 425
2056027 Standard Crypto Venture Fund III LP 2026-05-06 06:08:19 D/A
2045367 HOPPER PAUL 2026-05-06 06:08:16 3
1949257 RDPTF Radiopharm Theranostics Ltd 2026-05-06 06:08:16 3
1370946 OC Owens Corning 2026-05-06 06:06:58 10-Q |    |  
1826168 TIMB TIM S.A. 2026-05-06 06:06:58 6-K
1689873 GraniteShares ETF Trust 2026-05-06 06:06:58 485BXT
1264136 WF WOORI FINANCIAL GROUP INC. 2026-05-06 06:06:57 425
1465740 TWOD TWO HARBORS INVESTMENT CORP. 2026-05-06 06:06:08 DEFA14A
1651308 BEIGF BeOne Medicines Ltd. 2026-05-06 06:05:53 10-Q |    |  
1748790 AMCCF Amcor plc 2026-05-06 06:05:53 8-K |    |  
2035992 MCTA Charming Medical Ltd 2026-05-06 06:05:51 6-K
899923 MYGN MYRIAD GENETICS INC 2026-05-06 06:05:31 10-Q |    |  
1689873 GraniteShares ETF Trust 2026-05-06 06:05:21 8-A12B
1140625 STOHF EQUINOR ASA 2026-05-06 06:05:05 6-K
1140625 STOHF EQUINOR ASA 2026-05-06 06:05:04 6-K
1116578 PUKPF PRUDENTIAL PLC 2026-05-06 06:04:54 6-K
1370946 OC Owens Corning 2026-05-06 06:04:30 8-K |    |  
1689873 GraniteShares ETF Trust 2026-05-06 06:04:15 485BXT
27996 DLX DELUXE CORP 2026-05-06 06:03:59 8-K |    |  
1983324 RMSGW Real Messenger Corp 2026-05-06 06:03:55 6-K
2056029 Standard Crypto Venture Fund III Offshore LP 2026-05-06 06:03:48 D/A
1651308 BEIGF BeOne Medicines Ltd. 2026-05-06 06:03:36 8-K |    |  
1672013 GOLF Acushnet Holdings Corp. 2026-05-06 06:03:29 8-K |    |